New Bern, NC

11:46 AM EST on December 12, 2019 (GMT -0500)
Craven County Regional

Weather History for KEWN - August, 2019

Change the Weather History Date:

Wednesday, August 21, 2019

  Actual Average Record
Temperature  
Mean Temperature 84 °F 79 °F  
Max Temperature 91 °F 88 °F 101 °F (2007)
Min Temperature 75 °F 70 °F 58 °F (1998)
Degree Days  
Heating Degree Days 0 0  
Month to date heating degree days 0 0  
Since 1 June heating degree days 0 1  
Since 1 July heating degree days 0 0  
Cooling Degree Days 18 14  
Month to date cooling degree days 340 307  
Year to date cooling degree days 1659 1397  
Since 1 June cooling degree days 1240 1154  
Growing Degree Days 34 (Base 50)    
Moisture  
Dew Point 76 °F    
Average Humidity 81    
Maximum Humidity 100    
Minimum Humidity 60    
Precipitation  
Precipitation T in 0.21 in 1.15 in (1976)
Month to date precipitation 5.50 4.61  
Year to date precipitation 28.44 34.76  
Snow  
Snow 0.00 in - - ()
Month to date snowfall 0.0  
Since 1 July snowfall 0.0  
Snow Depth 0.00 in    
Sea Level Pressure  
Sea Level Pressure 30.06 in    
Wind  
Wind Speed 6 mph ()    
Max Wind Speed 18 mph    
Max Gust Speed 24 mph    
Visibility 10.0 miles    
Events Rain , Thunderstorm    
T = Trace of Precipitation, MM = Missing Value Source: Averaged Metar Reports

Daily Weather History Graph

Daily Weather History Graph

Search for Another Location

Airport or City:

Astronomy

Aug. 21, 2019 Rise Set
Actual Time 6:32 AM EDT 7:49 PM EDT
Civil Twilight 6:05 AM EDT 8:16 PM EDT
Nautical Twilight 5:34 AM EDT 8:47 PM EDT
Astronomical Twilight 5:01 AM EDT 9:20 PM EDT
Moon 11:19 PM EDT (8/21) 11:53 AM EDT (8/21)
Length of Visible Light 14h 10m
Length of Day
13h 17m
Waning Gibbous, 69% of the Moon is Illuminated
Aug 21
Waning Gibbous
Aug 23
Last Quarter
Aug 30
New
Sep 5
First Quarter
Sep 14
Full

Hourly Weather History & Observations

Time (EDT) Temp. Heat Index Dew Point Humidity Pressure Visibility Wind Dir Wind Speed Gust Speed Precip Events Conditions
12:54 AM 78.1 °F - 75.9 °F 93% 30.13 in 10.0 mi SSW 3.5 mph - N/A   Clear
1:54 AM 78.1 °F - 75.9 °F 93% 30.12 in 10.0 mi Calm Calm - N/A   Clear
2:54 AM 77.0 °F - 75.9 °F 96% 30.10 in 10.0 mi South 3.5 mph - N/A   Clear
3:54 AM 77.0 °F - 75.9 °F 96% 30.10 in 10.0 mi SSW 4.6 mph - N/A   Clear
4:54 AM 75.9 °F - 75.9 °F 100% 30.10 in 10.0 mi South 3.5 mph - N/A   Clear
5:54 AM 75.0 °F - 75.0 °F 100% 30.09 in 10.0 mi South 4.6 mph - N/A   Clear
6:54 AM 75.9 °F - 75.9 °F 100% 30.10 in 10.0 mi South 3.5 mph - N/A   Clear
7:54 AM 80.1 °F 85.8 °F 77.0 °F 90% 30.09 in 10.0 mi SSW 5.8 mph - N/A   Clear
8:54 AM 82.9 °F 91.8 °F 77.0 °F 82% 30.10 in 10.0 mi SW 12.7 mph 17.3 mph N/A   Clear
9:54 AM 84.0 °F 92.6 °F 75.9 °F 76% 30.09 in 10.0 mi WSW 11.5 mph - N/A   Scattered Clouds
10:54 AM 87.1 °F 96.3 °F 75.0 °F 67% 30.09 in - SSW 12.7 mph - N/A   Partly Cloudy
11:54 AM 88.0 °F 97.5 °F 75.0 °F 65% 30.08 in 10.0 mi SW 8.1 mph - N/A   Scattered Clouds
12:54 PM 81.0 °F 85.8 °F 73.0 °F 77% 30.06 in 10.0 mi WSW 4.6 mph - 0.00 in   Scattered Clouds
1:54 PM 88.0 °F 98.5 °F 75.9 °F 67% 30.04 in 10.0 mi WSW 8.1 mph - N/A   Clear
2:54 PM 91.0 °F 102.9 °F 75.9 °F 61% 30.03 in 10.0 mi SW 11.5 mph - N/A   Mostly Cloudy
3:35 PM 90.0 °F 101.3 °F 75.9 °F 63% 30.02 in 10.0 mi SW 8.1 mph 17.3 mph N/A Thunderstorm Thunderstorm
3:50 PM 87.8 °F 97.6 °F 75.2 °F 66% 30.01 in 10.0 mi South 9.2 mph - 0.00 in Rain Light Rain
3:54 PM 87.1 °F 97.3 °F 75.9 °F 69% 30.01 in 10.0 mi SW 9.2 mph - 0.00 in Rain , Thunderstorm Light Rain
4:13 PM 87.1 °F 96.3 °F 75.0 °F 67% 30.01 in 10.0 mi SSW 8.1 mph - 0.00 in   Mostly Cloudy
4:47 PM 84.0 °F 92.6 °F 75.9 °F 76% 30.02 in 10.0 mi SSW 10.4 mph - 0.00 in Thunderstorm Partly Cloudy
4:54 PM 84.0 °F 93.7 °F 77.0 °F 79% 30.02 in 10.0 mi SSW 8.1 mph - 0.00 in Thunderstorm Partly Cloudy
5:02 PM 84.0 °F 93.7 °F 77.0 °F 79% 30.02 in 10.0 mi SW 12.7 mph - N/A   Clear
5:54 PM 84.9 °F 94.1 °F 75.9 °F 74% 30.02 in 10.0 mi South 6.9 mph - N/A   Clear
6:54 PM 84.0 °F 92.6 °F 75.9 °F 76% 30.01 in 10.0 mi South 10.4 mph - N/A   Clear
7:54 PM 82.0 °F 88.6 °F 75.0 °F 79% 30.02 in 10.0 mi SSW 9.2 mph - N/A   Clear
8:54 PM 80.1 °F 85.4 °F 75.9 °F 87% 30.02 in 10.0 mi SSW 9.2 mph - N/A   Clear
9:54 PM 80.1 °F 85.8 °F 77.0 °F 90% 30.03 in 10.0 mi SSW 9.2 mph - N/A   Clear
10:54 PM 80.1 °F 85.4 °F 75.9 °F 87% 30.04 in 10.0 mi SW 9.2 mph - N/A   Clear
11:54 PM 79.0 °F - 73.9 °F 84% 30.06 in 10.0 mi WSW 8.1 mph 17.3 mph N/A   Partly Cloudy